| time (UTC) | temp F | wind direction | speed MPH | gust MPH | rain 1hr in | rain 24hr in | rain mn in | humidity % | barometer mb |
| 20260901235831 | 101 | 303 | 1.0 | 3.0 | 0.00 | 0.00 | 0.00 | 34 | 1011.7 |
| 20260901234824 | 101 | 303 | 1.0 | 4.0 | 0.00 | 0.00 | 0.00 | 33 | 1011.7 |
| 20260901233843 | 101 | 303 | 0.0 | 6.0 | 0.00 | 0.00 | 0.00 | 35 | 1011.7 |
| 20260901232815 | 101 | 303 | 1.0 | 5.0 | 0.00 | 0.00 | 0.00 | 34 | 1011.8 |
| 20260901231828 | 101 | 303 | 3.0 | 6.0 | 0.00 | 0.00 | 0.00 | 33 | 1011.9 |
| 20260901230820 | 101 | 303 | 3.0 | 6.0 | 0.00 | 0.00 | 0.00 | 33 | 1012.0 |
| 20260901225853 | 101 | 303 | 2.0 | 5.0 | 0.00 | 0.00 | 0.00 | 36 | 1012.1 |
| 20260901224828 | 101 | 303 | 1.0 | 4.0 | 0.00 | 0.00 | 0.00 | 35 | 1012.1 |
| 20260901223821 | 102 | 303 | 1.0 | 4.0 | 0.00 | 0.00 | 0.00 | 36 | 1012.2 |
| 20260901222814 | 101 | 303 | 2.0 | 4.0 | 0.00 | 0.00 | 0.00 | 35 | 1012.3 |
| 20260901221826 | 102 | 303 | 1.0 | 3.0 | 0.00 | 0.00 | 0.00 | 36 | 1012.5 |
| 20260901220840 | 99 | 303 | 0.0 | 3.0 | 0.00 | 0.00 | 0.00 | 38 | 1012.6 |
| 20260901215816 | 101 | 303 | 2.0 | 4.0 | 0.00 | 0.00 | 0.00 | 37 | 1012.6 |
| 20260901214829 | 101 | 303 | 2.0 | 4.0 | 0.00 | 0.00 | 0.00 | 36 | 1012.7 |
| 20260901213844 | 101 | 303 | 2.0 | 5.0 | 0.00 | 0.00 | 0.00 | 35 | 1012.8 |
| 20260901212833 | 101 | 303 | 1.0 | 5.0 | 0.00 | 0.00 | 0.00 | 37 | 1013.1 |
| 20260901211827 | 100 | 303 | 2.0 | 5.0 | 0.00 | 0.00 | 0.00 | 39 | 1013.3 |
| 20260901210816 | 100 | 303 | 1.0 | 4.0 | 0.00 | 0.00 | 0.00 | 38 | 1013.5 |
| 20260901205851 | 100 | 303 | 1.0 | 3.0 | 0.00 | 0.00 | 0.00 | 39 | 1013.7 |
| 20260901204846 | 100 | 303 | 1.0 | 4.0 | 0.00 | 0.00 | 0.00 | 39 | 1013.8 |
| 20260901203817 | 100 | 303 | 1.0 | 3.0 | 0.00 | 0.00 | 0.00 | 38 | 1014.0 |
| 20260901202830 | 100 | 303 | 1.0 | 3.0 | 0.00 | 0.00 | 0.00 | 40 | 1014.1 |
| 20260901201823 | 97 | 303 | 1.0 | 4.0 | 0.00 | 0.00 | 0.00 | 42 | 1014.3 |
| 20260901200855 | 100 | 303 | 1.0 | 3.0 | 0.00 | 0.00 | 0.00 | 41 | 1014.4 |
| 20260901195832 | 96 | 303 | 1.0 | 4.0 | 0.00 | 0.00 | 0.00 | 43 | 1014.5 |
| 20260901194824 | 97 | 303 | 2.0 | 5.0 | 0.00 | 0.00 | 0.00 | 42 | 1014.7 |
| 20260901193817 | 96 | 303 | 0.0 | 5.0 | 0.00 | 0.00 | 0.00 | 44 | 1014.8 |
| 20260901192830 | 97 | 303 | 2.0 | 4.0 | 0.00 | 0.00 | 0.00 | 41 | 1015.0 |
| 20260901191843 | 98 | 303 | 0.0 | 2.0 | 0.00 | 0.00 | 0.00 | 43 | 1015.1 |
| 20260901190818 | 96 | 303 | 1.0 | 3.0 | 0.00 | 0.00 | 0.00 | 45 | 1015.3 |
| 20260901185851 | 95 | 303 | 1.0 | 4.0 | 0.00 | 0.00 | 0.00 | 45 | 1015.5 |
| 20260901184823 | 95 | 303 | 2.0 | 5.0 | 0.00 | 0.00 | 0.00 | 44 | 1015.6 |
| 20260901183815 | 95 | 303 | 1.0 | 4.0 | 0.00 | 0.00 | 0.00 | 46 | 1015.7 |
| 20260901182847 | 95 | 303 | 2.0 | 4.0 | 0.00 | 0.00 | 0.00 | 46 | 1015.9 |
| 20260901181819 | 95 | 303 | 1.0 | 5.0 | 0.00 | 0.00 | 0.00 | 45 | 1016.0 |
| 20260901180837 | 95 | 303 | 1.0 | 3.0 | 0.00 | 0.00 | 0.00 | 47 | 1016.0 |
| 20260901175829 | 95 | 303 | 1.0 | 3.0 | 0.00 | 0.00 | 0.00 | 46 | 1016.1 |
| 20260901174821 | 94 | 303 | 3.0 | 5.0 | 0.00 | 0.00 | 0.00 | 47 | 1016.2 |
| 20260901173833 | 93 | 303 | 0.0 | 3.0 | 0.00 | 0.00 | 0.00 | 50 | 1016.3 |
| 20260901172826 | 93 | 303 | 1.0 | 5.0 | 0.00 | 0.00 | 0.00 | 49 | 1016.3 |
| 20260901171840 | 93 | 303 | 1.0 | 3.0 | 0.00 | 0.00 | 0.00 | 47 | 1016.3 |
| 20260901170836 | 91 | 303 | 0.0 | 3.0 | 0.00 | 0.00 | 0.00 | 49 | 1016.3 |
| 20260901165849 | 91 | 303 | 2.0 | 3.0 | 0.00 | 0.00 | 0.00 | 51 | 1016.2 |
| 20260901164821 | 90 | 303 | 1.0 | 3.0 | 0.00 | 0.00 | 0.00 | 52 | 1016.1 |
| 20260901163834 | 90 | 303 | 1.0 | 3.0 | 0.00 | 0.00 | 0.00 | 53 | 1016.1 |
| 20260901162827 | 89 | 303 | 0.0 | 4.0 | 0.00 | 0.00 | 0.00 | 55 | 1016.1 |
| 20260901161818 | 88 | 303 | 1.0 | 4.0 | 0.00 | 0.00 | 0.00 | 54 | 1016.0 |
| 20260901160816 | 89 | 303 | 1.0 | 4.0 | 0.00 | 0.00 | 0.00 | 52 | 1016.0 |
| 20260901155849 | 89 | 303 | 1.0 | 3.0 | 0.00 | 0.01 | 0.00 | 53 | 1015.9 |
| 20260901154820 | 88 | 303 | 1.0 | 4.0 | 0.00 | 0.01 | 0.00 | 54 | 1015.8 |
| 20260901153833 | 87 | 303 | 2.0 | 6.0 | 0.00 | 0.01 | 0.00 | 55 | 1015.8 |
| 20260901152823 | 87 | 303 | 2.0 | 6.0 | 0.00 | 0.01 | 0.00 | 54 | 1015.7 |
| 20260901151820 | 87 | 303 | 1.0 | 3.0 | 0.00 | 0.01 | 0.00 | 56 | 1015.7 |
| 20260901150832 | 86 | 303 | 0.0 | 2.0 | 0.00 | 0.01 | 0.00 | 58 | 1015.7 |
| 20260901145822 | 85 | 303 | 0.0 | 4.0 | 0.00 | 0.05 | 0.00 | 60 | 1015.8 |
| 20260901144816 | 84 | 303 | 2.0 | 3.0 | 0.00 | 0.05 | 0.00 | 61 | 1015.7 |
| 20260901143829 | 83 | 303 | 0.0 | 2.0 | 0.00 | 0.05 | 0.00 | 63 | 1015.5 |
| 20260901142855 | 82 | 303 | 0.0 | 3.0 | 0.00 | 0.05 | 0.00 | 66 | 1015.5 |
| 20260901064820 | 80 | 303 | 0.0 | 2.0 | 0.00 | 0.05 | 0.05 | 67 | 1014.3 |
| 20260901063813 | 80 | 303 | 1.0 | 3.0 | 0.00 | 0.05 | 0.05 | 66 | 1014.3 |
| 20260901062827 | 81 | 303 | 1.0 | 3.0 | 0.00 | 0.05 | 0.05 | 65 | 1014.3 |
| 20260901061839 | 81 | 303 | 0.0 | 3.0 | 0.00 | 0.05 | 0.05 | 64 | 1014.2 |
| 20260901060814 | 81 | 303 | 1.0 | 3.0 | 0.00 | 0.05 | 0.05 | 62 | 1014.3 |
| 20260901055846 | 82 | 303 | 0.0 | 3.0 | 0.00 | 0.05 | 0.05 | 61 | 1014.3 |
| 20260901054840 | 82 | 303 | 0.0 | 2.0 | 0.00 | 0.05 | 0.05 | 60 | 1014.3 |
| 20260901053832 | 82 | 303 | 1.0 | 4.0 | 0.00 | 0.05 | 0.05 | 59 | 1014.2 |
| 20260901052825 | 82 | 303 | 1.0 | 2.0 | 0.00 | 0.05 | 0.05 | 58 | 1014.3 |
| 20260901051818 | 82 | 303 | 0.0 | 2.0 | 0.00 | 0.05 | 0.05 | 58 | 1014.3 |
| 20260901050814 | 82 | 303 | 0.0 | 1.0 | 0.00 | 0.05 | 0.05 | 57 | 1014.3 |
| 20260901045826 | 82 | 303 | 0.0 | 2.0 | 0.00 | 0.06 | 0.05 | 57 | 1014.2 |
| 20260901044820 | 82 | 303 | 0.0 | 1.0 | 0.00 | 0.06 | 0.05 | 56 | 1014.3 |
| 20260901043852 | 83 | 303 | 0.0 | 1.0 | 0.00 | 0.06 | 0.05 | 56 | 1014.2 |
| 20260901042824 | 83 | 303 | 0.0 | 0.0 | 0.00 | 0.06 | 0.05 | 55 | 1014.1 |
| 20260901041821 | 83 | 303 | 0.0 | 1.0 | 0.00 | 0.06 | 0.05 | 55 | 1014.2 |
| 20260901040815 | 83 | 303 | 0.0 | 3.0 | 0.00 | 0.06 | 0.05 | 54 | 1014.0 |
| 20260901035825 | 83 | 303 | 0.0 | 1.0 | 0.00 | 0.06 | 0.05 | 54 | 1013.9 |
| 20260901034818 | 84 | 303 | 0.0 | 1.0 | 0.00 | 0.06 | 0.05 | 54 | 1013.9 |
| 20260901033829 | 84 | 303 | 0.0 | 2.0 | 0.00 | 0.06 | 0.05 | 55 | 1013.9 |
| 20260901032828 | 84 | 303 | 0.0 | 1.0 | 0.00 | 0.06 | 0.05 | 55 | 1013.7 |
| 20260901031841 | 84 | 303 | 0.0 | 1.0 | 0.00 | 0.06 | 0.05 | 54 | 1013.6 |
| 20260901030812 | 84 | 303 | 0.0 | 0.0 | 0.00 | 0.06 | 0.05 | 52 | 1013.3 |
| 20260901025824 | 84 | 303 | 0.0 | 1.0 | 0.00 | 0.06 | 0.05 | 51 | 1013.2 |
| 20260901024819 | 85 | 303 | 0.0 | 0.0 | 0.00 | 0.06 | 0.05 | 53 | 1013.1 |
| 20260901023816 | 85 | 303 | 0.0 | 0.0 | 0.00 | 0.06 | 0.05 | 50 | 1012.9 |
| 20260901022830 | 86 | 303 | 0.0 | 1.0 | 0.00 | 0.06 | 0.05 | 50 | 1012.8 |
| 20260901021824 | 86 | 303 | 0.0 | 1.0 | 0.00 | 0.06 | 0.05 | 48 | 1012.9 |
| 20260901020816 | 86 | 303 | 0.0 | 0.0 | 0.00 | 0.06 | 0.05 | 48 | 1012.7 |
| 20260901015828 | 86 | 303 | 0.0 | 0.0 | 0.00 | 0.06 | 0.05 | 47 | 1012.6 |
| 20260901014824 | 87 | 303 | 0.0 | 0.0 | 0.00 | 0.06 | 0.05 | 46 | 1012.5 |
| 20260901013817 | 87 | 303 | 0.0 | 0.0 | 0.00 | 0.06 | 0.05 | 46 | 1012.6 |
| 20260901012830 | 87 | 303 | 0.0 | 0.0 | 0.00 | 0.06 | 0.05 | 45 | 1012.4 |
| 20260901011841 | 88 | 303 | 0.0 | 0.0 | 0.00 | 0.06 | 0.05 | 46 | 1012.5 |
| 20260901010833 | 89 | 303 | 0.0 | 2.0 | 0.00 | 0.06 | 0.05 | 45 | 1012.5 |
| 20260901005825 | 89 | 303 | 0.0 | 2.0 | 0.00 | 0.06 | 0.05 | 45 | 1012.7 |
| 20260901004841 | 89 | 303 | 1.0 | 3.0 | 0.00 | 0.06 | 0.05 | 44 | 1012.6 |
| 20260901003814 | 89 | 303 | 0.0 | 1.0 | 0.00 | 0.06 | 0.05 | 44 | 1012.7 |
| 20260901002847 | 90 | 303 | 0.0 | 3.0 | 0.00 | 0.06 | 0.05 | 43 | 1012.9 |
| 20260901001817 | 91 | 303 | 0.0 | 2.0 | 0.00 | 0.06 | 0.05 | 43 | 1012.8 |
| 20260901000831 | 91 | 303 | 0.0 | 3.0 | 0.00 | 0.06 | 0.05 | 43 | 1012.9 |